This is the latest recevied weather packets stored in our database for station/object IU7URP-30. If no packets are shown the sender has not sent any weather packets the latest 10 day(s).
| Time | Temp. | Humidity | Pressure | Rain* | Wind** | Luminosity | Snow |
|---|---|---|---|---|---|---|---|
| 1777646480 | 15° C | 20% | 1023.9 hPa | - | - | - | - |
| 1777645580 | 15° C | 25% | 1023.7 hPa | - | - | - | - |
| 1777644679 | 15° C | 23% | 1024 hPa | - | - | - | - |
| 1777643779 | 15.56° C | 22% | 1023.8 hPa | - | - | - | - |
| 1777642879 | 16.67° C | 23% | 1023.8 hPa | - | - | - | - |
| 1777641979 | 16.67° C | 23% | 1023.8 hPa | - | - | - | - |
| 1777641079 | 17.22° C | 25% | 1024 hPa | - | - | - | - |
| 1777640178 | 16.67° C | 25% | 1023.9 hPa | - | - | - | - |
| 1777639278 | 16.11° C | 26% | 1023.9 hPa | - | - | - | - |
| 1777638378 | 15.56° C | 27% | 1024 hPa | - | - | - | - |
| 1777637478 | 15.56° C | 31% | 1023.9 hPa | - | - | - | - |
| 1777636577 | 16.11° C | 27% | 1024.2 hPa | - | - | - | - |
| 1777635663 | 15.56° C | 29% | 1024.3 hPa | - | - | - | - |
| 1777634762 | 15° C | 28% | 1024.1 hPa | - | - | - | - |
| 1777633727 | 15.56° C | 30% | 1024.5 hPa | - | - | - | - |
| 1777632827 | 15° C | 32% | 1024.5 hPa | - | - | - | - |
| 1777626188 | 13.89° C | 34% | 1024.5 hPa | - | - | - | - |
| 1777624320 | 13.89° C | 36% | 1024.4 hPa | - | - | - | - |
| 1777623419 | 12.22° C | 33% | 1024.4 hPa | - | - | - | - |
| 1777623071 | 17.22° C | 33% | 1024.7 hPa | - | - | - | - |
| 1777622811 | 18.33° C | 38% | 1026 hPa | - | - | - | - |
| 1777622759 | 18.33° C | 37% | 1026.2 hPa | - | - | - | - |
| 1777622679 | 18.33° C | 39% | 1026.1 hPa | - | - | - | - |
| 1777622659 | 18.33° C | 37% | 1026.1 hPa | - | - | - | - |
| 1777622465 | 17.78° C | 38% | 1026.3 hPa | - | - | - | - |
* Rain since midnight (hover to see other rain measurements)
** Current wind speed in m/s (hover to see current wind gust speed)